• In Deutschland
  • Länderverzeichnis
  • Für 7 Tage
  • Wassertemperatur
  • Satellitenkarten
  • Wetterkarte
  • Widgets
  • user-avatar
    Anmelden

    Stündliche Wetter Ganja

    Heute, 21 August, Montag

    Zeit Temperatur Niederschläge Wind Luftdruck Luftfeuchtigkeit
    00:00 +26°C° 0 mm 3 m/S 726 mmHg 43%
    01:00 +26°C° 0 mm 2 m/S 725 mmHg 44%
    02:00 +25°C° 0 mm 2 m/S 725 mmHg 44%
    03:00 +25°C° 0 mm 1 m/S 725 mmHg 44%
    04:00 +25°C° 0 mm 1 m/S 725 mmHg 45%
    05:00 +25°C° 0 mm 1 m/S 725 mmHg 46%
    06:00 +25°C° 0 mm 1 m/S 725 mmHg 47%
    07:00 +27°C° 0 mm 1 m/S 725 mmHg 42%
    08:00 +28°C° 0 mm 2 m/S 725 mmHg 38%
    09:00 +31°C° 0 mm 2 m/S 725 mmHg 33%
    10:00 +32°C° 0 mm 2 m/S 724 mmHg 31%
    11:00 +34°C° 0 mm 3 m/S 724 mmHg 30%
    12:00 +35°C° 0 mm 3 m/S 724 mmHg 28%
    13:00 +36°C° 0 mm 3 m/S 723 mmHg 28%
    14:00 +36°C° 0 mm 4 m/S 723 mmHg 27%
    15:00 +37°C° 0 mm 4 m/S 723 mmHg 27%
    16:00 +36°C° 0 mm 4 m/S 723 mmHg 29%
    17:00 +36°C° 0 mm 3 m/S 723 mmHg 31%
    18:00 +35°C° 0 mm 3 m/S 723 mmHg 33%
    19:00 +33°C° 0 mm 3 m/S 723 mmHg 36%
    20:00 +31°C° 0 mm 3 m/S 723 mmHg 39%
    21:00 +29°C° 0 mm 3 m/S 724 mmHg 42%
    22:00 +28°C° 0 mm 3 m/S 724 mmHg 44%
    23:00 +28°C° 0 mm 2 m/S 723 mmHg 46%

    Morgen, 22 August, Dienstag

    Zeit Temperatur Niederschläge Wind Luftdruck Luftfeuchtigkeit
    00:00 +27°C° 0 mm 2 m/S 723 mmHg 48%
    01:00 +26°C° 0 mm 2 m/S 723 mmHg 49%
    02:00 +26°C° 0 mm 1 m/S 723 mmHg 50%
    03:00 +25°C° 0 mm 1 m/S 723 mmHg 52%
    04:00 +25°C° 0 mm 1 m/S 723 mmHg 51%
    05:00 +25°C° 0 mm 1 m/S 723 mmHg 50%
    06:00 +25°C° 0 mm 2 m/S 723 mmHg 50%
    07:00 +27°C° 0 mm 2 m/S 723 mmHg 44%
    08:00 +29°C° 0 mm 2 m/S 723 mmHg 38%
    09:00 +31°C° 0 mm 2 m/S 723 mmHg 32%
    10:00 +32°C° 0 mm 2 m/S 723 mmHg 30%
    11:00 +34°C° 0 mm 3 m/S 722 mmHg 27%
    12:00 +36°C° 0 mm 3 m/S 722 mmHg 25%
    13:00 +36°C° 0 mm 3 m/S 722 mmHg 24%
    14:00 +37°C° 0 mm 4 m/S 721 mmHg 23%
    15:00 +38°C° 0 mm 4 m/S 721 mmHg 23%
    16:00 +37°C° 0 mm 4 m/S 721 mmHg 25%
    17:00 +36°C° 0 mm 4 m/S 721 mmHg 27%
    18:00 +35°C° 0 mm 3 m/S 721 mmHg 29%
    19:00 +34°C° 0 mm 4 m/S 721 mmHg 31%
    20:00 +32°C° 0 mm 4 m/S 722 mmHg 33%
    21:00 +29°C° 0 mm 4 m/S 722 mmHg 35%
    22:00 +29°C° 0 mm 4 m/S 722 mmHg 37%
    23:00 +28°C° 0 mm 3 m/S 722 mmHg 39%

    übermorgen, 23 August, Mittwoch

    Zeit Temperatur Niederschläge Wind Luftdruck Luftfeuchtigkeit
    00:00 +27°C° 0 mm 3 m/S 722 mmHg 41%
    01:00 +26°C° 0 mm 2 m/S 722 mmHg 42%
    02:00 +26°C° 0 mm 2 m/S 722 mmHg 43%
    03:00 +25°C° 0 mm 1 m/S 722 mmHg 45%
    04:00 +25°C° 0 mm 1 m/S 722 mmHg 45%
    05:00 +25°C° 0 mm 1 m/S 723 mmHg 45%
    06:00 +25°C° 0 mm 1 m/S 723 mmHg 45%
    07:00 +27°C° 0 mm 1 m/S 723 mmHg 39%
    08:00 +29°C° 0 mm 2 m/S 723 mmHg 33%
    09:00 +31°C° 0 mm 2 m/S 723 mmHg 27%
    10:00 +33°C° 0 mm 3 m/S 723 mmHg 25%
    11:00 +35°C° 0 mm 4 m/S 723 mmHg 22%
    12:00 +36°C° 0 mm 5 m/S 722 mmHg 19%
    13:00 +37°C° 0 mm 5 m/S 722 mmHg 19%
    14:00 +38°C° 0 mm 6 m/S 722 mmHg 19%
    15:00 +39°C° 0 mm 6 m/S 721 mmHg 19%
    16:00 +38°C° 0 mm 6 m/S 722 mmHg 22%
    17:00 +36°C° 0 mm 6 m/S 722 mmHg 25%
    18:00 +35°C° 0 mm 6 m/S 722 mmHg 28%
    19:00 +33°C° 0 mm 5 m/S 723 mmHg 30%
    20:00 +30°C° 0 mm 4 m/S 723 mmHg 33%
    21:00 +28°C° 0 mm 3 m/S 724 mmHg 36%
    22:00 +27°C° 0 mm 2 m/S 724 mmHg 37%
    23:00 +26°C° 0 mm 1 m/S 724 mmHg 39%

    24 August, Donnerstag

    Zeit Temperatur Niederschläge Wind Luftdruck Luftfeuchtigkeit
    00:00 +26°C° 0 mm 1 m/S 725 mmHg 41%
    01:00 +25°C° 0 mm 1 m/S 725 mmHg 41%
    02:00 +25°C° 0 mm 2 m/S 725 mmHg 42%
    03:00 +25°C° 0 mm 2 m/S 725 mmHg 42%
    04:00 +25°C° 0 mm 2 m/S 725 mmHg 43%
    05:00 +25°C° 0 mm 2 m/S 726 mmHg 45%
    06:00 +25°C° 0 mm 2 m/S 726 mmHg 46%
    07:00 +26°C° 0 mm 2 m/S 726 mmHg 42%
    08:00 +28°C° 0 mm 2 m/S 726 mmHg 38%
    09:00 +30°C° 0 mm 3 m/S 726 mmHg 34%
    10:00 +33°C° 0 mm 3 m/S 726 mmHg 30%
    11:00 +34°C° 0 mm 4 m/S 726 mmHg 26%
    12:00 +36°C° 0 mm 5 m/S 726 mmHg 23%
    13:00 +36°C° 0 mm 5 m/S 725 mmHg 21%
    14:00 +38°C° 0 mm 6 m/S 725 mmHg 20%
    15:00 +38°C° 0 mm 6 m/S 725 mmHg 19%
    16:00 +36°C° 0 mm 6 m/S 725 mmHg 21%
    17:00 +35°C° 0 mm 6 m/S 725 mmHg 23%
    18:00 +34°C° 0 mm 6 m/S 725 mmHg 25%
    19:00 +33°C° 0 mm 5 m/S 726 mmHg 27%
    20:00 +30°C° 0 mm 5 m/S 726 mmHg 30%
    21:00 +28°C° 0 mm 5 m/S 727 mmHg 32%
    22:00 +27°C° 0 mm 4 m/S 727 mmHg 33%
    23:00 +26°C° 0 mm 3 m/S 727 mmHg 35%

    25 August, Freitag

    Zeit Temperatur Niederschläge Wind Luftdruck Luftfeuchtigkeit
    00:00 +26°C° 0 mm 3 m/S 727 mmHg 36%
    01:00 +25°C° 0 mm 2 m/S 727 mmHg 37%
    02:00 +24°C° 0 mm 2 m/S 727 mmHg 38%
    03:00 +23°C° 0 mm 1 m/S 727 mmHg 39%
    04:00 +23°C° 0 mm 1 m/S 727 mmHg 39%
    05:00 +23°C° 0 mm 1 m/S 727 mmHg 39%
    06:00 +23°C° 0 mm 1 m/S 728 mmHg 39%
    07:00 +25°C° 0 mm 1 m/S 728 mmHg 34%
    08:00 +27°C° 0 mm 1 m/S 728 mmHg 29%
    09:00 +29°C° 0 mm 2 m/S 728 mmHg 24%
    10:00 +31°C° 0 mm 2 m/S 727 mmHg 21%
    11:00 +33°C° 0 mm 3 m/S 727 mmHg 19%
    12:00 +35°C° 0 mm 4 m/S 727 mmHg 16%
    13:00 +35°C° 0 mm 4 m/S 726 mmHg 16%
    14:00 +36°C° 0 mm 5 m/S 726 mmHg 15%
    15:00 +37°C° 0 mm 5 m/S 726 mmHg 14%
    16:00 +36°C° 0 mm 5 m/S 726 mmHg 16%
    17:00 +35°C° 0 mm 4 m/S 726 mmHg 18%
    18:00 +34°C° 0 mm 4 m/S 726 mmHg 20%
    19:00 +32°C° 0 mm 4 m/S 727 mmHg 22%
    20:00 +29°C° 0 mm 4 m/S 727 mmHg 24%
    21:00 +28°C° 0 mm 4 m/S 727 mmHg 26%
    22:00 +27°C° 0 mm 4 m/S 727 mmHg 28%
    23:00 +26°C° 0 mm 3 m/S 727 mmHg 30%

    26 August, Samstag

    Zeit Temperatur Niederschläge Wind Luftdruck Luftfeuchtigkeit
    00:00 +25°C° 0 mm 3 m/S 727 mmHg 32%
    01:00 +24°C° 0 mm 2 m/S 727 mmHg 32%
    02:00 +24°C° 0 mm 2 m/S 727 mmHg 33%
    03:00 +23°C° 0 mm 1 m/S 727 mmHg 33%
    04:00 +23°C° 0 mm 1 m/S 727 mmHg 33%
    05:00 +23°C° 0 mm 1 m/S 728 mmHg 33%
    06:00 +23°C° 0 mm 1 m/S 728 mmHg 32%
    07:00 +25°C° 0 mm 1 m/S 728 mmHg 29%
    08:00 +27°C° 0 mm 2 m/S 728 mmHg 26%
    09:00 +29°C° 0 mm 2 m/S 728 mmHg 23%
    10:00 +31°C° 0 mm 3 m/S 727 mmHg 22%
    11:00 +33°C° 0 mm 3 m/S 727 mmHg 20%
    12:00 +34°C° 0 mm 4 m/S 726 mmHg 19%
    13:00 +35°C° 0 mm 4 m/S 726 mmHg 18%
    14:00 +36°C° 0 mm 5 m/S 726 mmHg 18%
    15:00 +36°C° 0 mm 5 m/S 725 mmHg 18%
    16:00 +35°C° 0 mm 5 m/S 725 mmHg 20%
    17:00 +34°C° 0 mm 4 m/S 725 mmHg 22%
    18:00 +33°C° 0 mm 4 m/S 726 mmHg 24%
    19:00 +32°C° 0 mm 4 m/S 726 mmHg 26%
    20:00 +29°C° 0 mm 4 m/S 726 mmHg 28%
    21:00 +27°C° 0 mm 4 m/S 727 mmHg 30%
    22:00 +27°C° 0 mm 3 m/S 727 mmHg 31%
    23:00 +26°C° 0 mm 3 m/S 727 mmHg 33%
    Mehr zeigen